QPF
0.03 0.03 0.03 0.03 0.03 0.03 0.02 0.02 0.04 0.03 0.02 0.01 0.01 0.02 0.01 0.01 0.02 0.03 0.03 0.03 0.02 0.02 0.02 0.04 0.03 0.03 0.03 0.03 0.04 0.04 0.05 0.06 0.07 0.06 0.03 0.01 0.01 0.01 0.01 0.01 0.01 0.00 0.00
0.04 0.04 0.03 0.02 0.01 0.02 0.03 0.02 0.03 0.02 0.01 0.01 0.00 0.01 0.01 0.02 0.02 0.03 0.05 0.05 0.03 0.03 0.04 0.03 0.02 0.02 0.02 0.02 0.03 0.04 0.05 0.06 0.05 0.02 0.01 0.01 0.01 0.01 0.01 0.01 0.01 0.01 0.01
0.06 0.06 0.03 0.02 0.02 0.02 0.02 0.02 0.02 0.02 0.01 0.01 0.00 0.00 0.01 0.01 0.02 0.03 0.03 0.03 0.03 0.04 0.03 0.02 0.02 0.01 0.01 0.01 0.01 0.02 0.02 0.02 0.02 0.02 0.01 0.01 0.01 0.01 0.01 0.01 0.01 0.01 0.01
0.04 0.04 0.03 0.03 0.03 0.03 0.03 0.02 0.02 0.01 0.01 0.01 0.00 0.00 0.00 0.01 0.01 0.02 0.03 0.03 0.04 0.03 0.03 0.02 0.02 0.02 0.01 0.01 0.02 0.03 0.02 0.02 0.02 0.02 0.01 0.01 0.01 0.01 0.01 0.01 0.01 0.01 0.01
0.05 0.06 0.06 0.06 0.06 0.05 0.04 0.03 0.02 0.02 0.02 0.02 0.01 0.00 0.00 0.01 0.01 0.01 0.02 0.02 0.02 0.02 0.02 0.02 0.01 0.01 0.01 0.01 0.02 0.03 0.03 0.02 0.02 0.02 0.01 0.01 0.01 0.01 0.01 0.01 0.01 0.01 0.00
0.08 0.08 0.09 0.08 0.05 0.05 0.03 0.03 0.03 0.03 0.03 0.02 0.02 0.01 0.00 0.01 0.01 0.01 0.01 0.02 0.02 0.02 0.01 0.01 0.01 0.01 0.01 0.02 0.03 0.03 0.01 0.01 0.01 0.01 0.01 0.01 0.01 0.01 0.01 0.01 0.01 0.01 0.01
0.09 0.09 0.07 0.06 0.04 0.03 0.03 0.04 0.05 0.05 0.05 0.04 0.02 0.01 0.01 0.01 0.02 0.03 0.03 0.02 0.02 0.01 0.01 0.01 0.01 0.01 0.02 0.02 0.02 0.02 0.01 0.01 0.01 0.01 0.01 0.01 0.01 0.01 0.01 0.01 0.01 0.01 0.01
0.04 0.04 0.04 0.04 0.05 0.04 0.05 0.07 0.06 0.08 0.09 0.05 0.03 0.02 0.01 0.02 0.03 0.03 0.02 0.02 0.01 0.01 0.01 0.01 0.01 0.01 0.02 0.02 0.02 0.02 0.02 0.02 0.02 0.02 0.01 0.01 0.01 0.02 0.02 0.01 0.01 0.01 0.02
0.03 0.03 0.03 0.04 0.04 0.04 0.05 0.07 0.06 0.07 0.10 0.06 0.03 0.03 0.02 0.03 0.03 0.03 0.02 0.02 0.02 0.01 0.01 0.01 0.01 0.01 0.01 0.01 0.02 0.01 0.01 0.01 0.02 0.02 0.01 0.01 0.01 0.02 0.02 0.02 0.01 0.01 0.01
0.03 0.04 0.07 0.06 0.06 0.05 0.06 0.08 0.07 0.07 0.09 0.08 0.08 0.08 0.07 0.06 0.04 0.04 0.04 0.03 0.02 0.02 0.01 0.01 0.01 0.01 0.01 0.01 0.01 0.01 0.01 0.01 0.01 0.01 0.01 0.01 0.01 0.02 0.02 0.01 0.01 0.01 0.01
0.02 0.03 0.06 0.08 0.08 0.08 0.09 0.11 0.12 0.10 0.11 0.11 0.11 0.10 0.08 0.06 0.05 0.05 0.04 0.03 0.02 0.02 0.02 0.01 0.01 0.01 0.01 0.01 0.01 0.01 0.01 0.01 0.01 0.02 0.02 0.02 0.02 0.02 0.02 0.02 0.01 0.01 0.01
0.03 0.04 0.05 0.06 0.07 0.09 0.11 0.12 0.12 0.12 0.12 0.09 0.07 0.05 0.06 0.06 0.06 0.05 0.04 0.03 0.02 0.02 0.02 0.02 0.02 0.02 0.02 0.01 0.01 0.01 0.01 0.01 0.01 0.02 0.03 0.03 0.03 0.02 0.02 0.02 0.02 0.02 0.02
0.05 0.05 0.06 0.09 0.11 0.11 0.16 0.19 0.20 0.20 0.15 0.09 0.06 0.05 0.04 0.04 0.03 0.04 0.05 0.06 0.05 0.04 0.03 0.03 0.02 0.01 0.02 0.02 0.02 0.01 0.01 0.01 0.02 0.02 0.02 0.02 0.03 0.03 0.02 0.02 0.02 0.02 0.02
0.04 0.05 0.05 0.06 0.11 0.12 0.11 0.11 0.10 0.11 0.11 0.08 0.05 0.04 0.03 0.04 0.05 0.06 0.07 0.07 0.05 0.04 0.03 0.02 0.02 0.01 0.01 0.02 0.03 0.02 0.02 0.01 0.02 0.03 0.02 0.02 0.02 0.02 0.02 0.02 0.02 0.02 0.03
0.02 0.03 0.04 0.03 0.05 0.05 0.05 0.06 0.06 0.06 0.06 0.05 0.05 0.05 0.05 0.06 0.07 0.07 0.06 0.05 0.04 0.04 0.03 0.02 0.02 0.02 0.02 0.02 0.02 0.04 0.04 0.03 0.02 0.02 0.03 0.03 0.02 0.01 0.01 0.02 0.02 0.03 0.03
0.03 0.02 0.03 0.03 0.03 0.04 0.04 0.05 0.06 0.05 0.06 0.05 0.05 0.04 0.03 0.03 0.03 0.02 0.02 0.02 0.01 0.01 0.01 0.01 0.02 0.02 0.02 0.03 0.03 0.02 0.02 0.03 0.04 0.03 0.02 0.02 0.01 0.01 0.01 0.01 0.01 0.02 0.02
0.04 0.03 0.03 0.03 0.04 0.04 0.04 0.04 0.05 0.04 0.04 0.04 0.03 0.03 0.03 0.02 0.01 0.01 0.01 0.01 0.01 0.01 0.01 0.01 0.01 0.02 0.02 0.03 0.03 0.03 0.02 0.02 0.03 0.03 0.02 0.01 0.01 0.01 0.01 0.01 0.01 0.01 0.01
0.04 0.04 0.03 0.04 0.04 0.04 0.04 0.04 0.04 0.03 0.03 0.03 0.03 0.02 0.01 0.01 0.01 0.01 0.01 0.01 0.01 0.01 0.00 0.00 0.01 0.01 0.01 0.01 0.01 0.01 0.01 0.01 0.01 0.02 0.03 0.02 0.02 0.01 0.01 0.01 0.02 0.02 0.02
0.03 0.04 0.05 0.05 0.05 0.04 0.04 0.03 0.04 0.04 0.04 0.03 0.03 0.02 0.01 0.01 0.01 0.01 0.01 0.01 0.01 0.01 0.00 0.00 0.00 0.00 0.01 0.01 0.01 0.01 0.01 0.01 0.01 0.01 0.02 0.02 0.02 0.02 0.02 0.02 0.02 0.03 0.03
0.04 0.05 0.05 0.05 0.05 0.04 0.04 0.04 0.04 0.04 0.04 0.05 0.04 0.03 0.02 0.01 0.01 0.01 0.01 0.01 0.01 0.00 0.00 0.00 0.00 0.01 0.00 0.00 0.00 0.00 0.01 0.01 0.01 0.01 0.01 0.01 0.01 0.01 0.01 0.01 0.01 0.02 0.02
0.03 0.03 0.03 0.03 0.03 0.04 0.05 0.05 0.04 0.04 0.04 0.04 0.03 0.03 0.02 0.01 0.01 0.01 0.00 0.01 0.01 0.00 0.00 0.00 0.00 0.00 0.00 0.00 0.00 0.00 0.00 0.01 0.01 0.01 0.01 0.01 0.02 0.02 0.02 0.02 0.02 0.02 0.02
0.03 0.02 0.02 0.03 0.04 0.05 0.06 0.06 0.05 0.04 0.03 0.03 0.02 0.02 0.02 0.01 0.01 0.00 0.01 0.01 0.01 0.01 0.01 0.00 0.00 0.00 0.00 0.00 0.00 0.00 0.01 0.01 0.01 0.01 0.01 0.01 0.01 0.01 0.01 0.01 0.02 0.02 0.02
0.02 0.02 0.03 0.05 0.06 0.07 0.06 0.07 0.08 0.06 0.04 0.03 0.02 0.02 0.02 0.01 0.01 0.01 0.01 0.01 0.01 0.01 0.00 0.00 0.00 0.00 0.00 0.00 0.00 0.00 0.00 0.01 0.01 0.01 0.01 0.01 0.01 0.01 0.01 0.02 0.02 0.02 0.02
0.03 0.03 0.04 0.05 0.05 0.05 0.05 0.05 0.06 0.04 0.03 0.03 0.02 0.01 0.01 0.01 0.01 0.01 0.00 0.01 0.01 0.00 0.00 0.00 0.00 0.00 0.00 0.00 0.00 0.00 0.01 0.01 0.01 0.01 0.01 0.01 0.01 0.01 0.02 0.02 0.02 0.02 0.03
0.03 0.03 0.03 0.03 0.03 0.03 0.03 0.03 0.03 0.02 0.02 0.01 0.01 0.00 0.00 0.00 0.01 0.01 0.01 0.01 0.01 0.01 0.00 0.00 0.00 0.00 0.00 0.00 0.01 0.01 0.01 0.01 0.01 0.01 0.01 0.02 0.02 0.02 0.02 0.02 0.02 0.02 0.03
0.03 0.03 0.03 0.03 0.03 0.03 0.04 0.04 0.03 0.02 0.01 0.01 0.00 0.00 0.01 0.01 0.01 0.01 0.01 0.01 0.01 0.01 0.01 0.01 0.01 0.01 0.01 0.01 0.01 0.01 0.01 0.01 0.02 0.03 0.03 0.03 0.03 0.03 0.02 0.02 0.02 0.02 0.03
MSLP
1013.75 1013.81 1013.89 1013.94 1013.91 1013.81 1013.62 1013.39 1013.15 1012.94 1012.79 1012.72 1012.72 1012.78 1012.87 1012.95 1013.02 1013.05 1013.05 1013.04 1013.03 1013.06 1013.13 1013.24 1013.40 1013.60 1013.81 1014.03 1014.23 1014.41 1014.57 1014.73 1014.87 1015.03 1015.19 1015.36 1015.54 1015.71 1015.87 1016.02 1016.16 1016.27 1016.37
1013.47 1013.44 1013.43 1013.40 1013.31 1013.16 1012.95 1012.71 1012.47 1012.27 1012.14 1012.08 1012.10 1012.18 1012.27 1012.37 1012.45 1012.49 1012.49 1012.48 1012.48 1012.49 1012.54 1012.64 1012.78 1012.96 1013.17 1013.39 1013.63 1013.86 1014.10 1014.34 1014.59 1014.84 1015.09 1015.34 1015.57 1015.78 1015.96 1016.11 1016.23 1016.33 1016.42
1013.32 1013.21 1013.11 1013.00 1012.84 1012.63 1012.38 1012.11 1011.85 1011.64 1011.50 1011.44 1011.45 1011.51 1011.59 1011.68 1011.75 1011.78 1011.79 1011.79 1011.79 1011.80 1011.85 1011.95 1012.08 1012.25 1012.46 1012.69 1012.95 1013.22 1013.51 1013.82 1014.14 1014.46 1014.79 1015.11 1015.39 1015.64 1015.85 1016.02 1016.15 1016.26 1016.36
1013.30 1013.12 1012.95 1012.76 1012.53 1012.25 1011.95 1011.64 1011.35 1011.11 1010.93 1010.83 1010.79 1010.81 1010.85 1010.90 1010.94 1010.96 1010.97 1010.98 1010.99 1011.02 1011.09 1011.19 1011.33 1011.51 1011.72 1011.95 1012.22 1012.50 1012.82 1013.16 1013.52 1013.90 1014.28 1014.64 1014.98 1015.28 1015.53 1015.73 1015.89 1016.03 1016.15
1013.35 1013.11 1012.88 1012.63 1012.33 1012.00 1011.65 1011.29 1010.95 1010.66 1010.43 1010.26 1010.16 1010.10 1010.07 1010.07 1010.06 1010.06 1010.06 1010.07 1010.11 1010.18 1010.27 1010.41 1010.57 1010.76 1010.98 1011.21 1011.46 1011.74 1012.05 1012.39 1012.76 1013.16 1013.57 1013.97 1014.35 1014.69 1014.98 1015.23 1015.43 1015.60 1015.76
1013.41 1013.13 1012.85 1012.54 1012.20 1011.82 1011.41 1011.01 1010.62 1010.27 1009.97 1009.72 1009.53 1009.38 1009.27 1009.18 1009.12 1009.08 1009.07 1009.10 1009.17 1009.28 1009.43 1009.61 1009.81 1010.03 1010.25 1010.47 1010.71 1010.96 1011.24 1011.56 1011.92 1012.31 1012.73 1013.15 1013.55 1013.93 1014.26 1014.55 1014.79 1015.00 1015.20
1013.40 1013.09 1012.77 1012.42 1012.04 1011.61 1011.17 1010.72 1010.27 1009.86 1009.48 1009.15 1008.86 1008.61 1008.40 1008.24 1008.11 1008.04 1008.03 1008.08 1008.19 1008.36 1008.57 1008.81 1009.06 1009.31 1009.55 1009.77 1009.98 1010.20 1010.45 1010.73 1011.05 1011.42 1011.82 1012.25 1012.67 1013.07 1013.43 1013.74 1014.02 1014.25 1014.47
1013.27 1012.93 1012.58 1012.19 1011.77 1011.31 1010.83 1010.33 1009.85 1009.37 1008.93 1008.51 1008.13 1007.78 1007.48 1007.24 1007.06 1006.96 1006.94 1007.02 1007.18 1007.42 1007.71 1008.02 1008.33 1008.63 1008.89 1009.11 1009.32 1009.51 1009.72 1009.96 1010.24 1010.58 1010.96 1011.38 1011.80 1012.20 1012.57 1012.90 1013.19 1013.43 1013.65
1013.01 1012.63 1012.23 1011.80 1011.34 1010.85 1010.34 1009.82 1009.29 1008.77 1008.27 1007.78 1007.31 1006.88 1006.51 1006.20 1005.97 1005.85 1005.84 1005.96 1006.18 1006.49 1006.85 1007.25 1007.64 1007.99 1008.30 1008.55 1008.75 1008.94 1009.12 1009.33 1009.59 1009.89 1010.25 1010.65 1011.05 1011.45 1011.81 1012.13 1012.39 1012.61 1012.80
1012.62 1012.18 1011.73 1011.25 1010.75 1010.24 1009.71 1009.16 1008.62 1008.07 1007.52 1006.98 1006.45 1005.96 1005.53 1005.17 1004.91 1004.78 1004.79 1004.94 1005.23 1005.61 1006.07 1006.55 1007.02 1007.44 1007.81 1008.10 1008.33 1008.53 1008.71 1008.91 1009.15 1009.44 1009.77 1010.15 1010.53 1010.90 1011.23 1011.51 1011.72 1011.89 1012.02
1012.11 1011.61 1011.09 1010.57 1010.04 1009.51 1008.97 1008.42 1007.87 1007.31 1006.75 1006.18 1005.62 1005.09 1004.62 1004.23 1003.97 1003.84 1003.87 1004.07 1004.41 1004.87 1005.41 1005.98 1006.53 1007.04 1007.47 1007.83 1008.11 1008.33 1008.54 1008.75 1008.98 1009.26 1009.58 1009.92 1010.27 1010.60 1010.88 1011.10 1011.24 1011.33 1011.37
1011.52 1010.94 1010.37 1009.80 1009.25 1008.71 1008.18 1007.65 1007.11 1006.57 1006.02 1005.45 1004.89 1004.36 1003.88 1003.49 1003.23 1003.12 1003.18 1003.42 1003.82 1004.35 1004.96 1005.61 1006.25 1006.83 1007.34 1007.76 1008.10 1008.37 1008.62 1008.85 1009.10 1009.37 1009.67 1009.99 1010.29 1010.57 1010.78 1010.92 1010.98 1010.96 1010.90
1010.85 1010.19 1009.57 1008.97 1008.41 1007.88 1007.38 1006.90 1006.41 1005.91 1005.40 1004.88 1004.35 1003.84 1003.39 1003.02 1002.78 1002.70 1002.80 1003.08 1003.53 1004.11 1004.78 1005.49 1006.20 1006.85 1007.43 1007.91 1008.31 1008.64 1008.92 1009.19 1009.45 1009.72 1010.01 1010.29 1010.55 1010.75 1010.89 1010.94 1010.90 1010.79 1010.61
1010.08 1009.37 1008.70 1008.10 1007.55 1007.06 1006.61 1006.19 1005.78 1005.36 1004.93 1004.48 1004.01 1003.57 1003.17 1002.85 1002.66 1002.62 1002.76 1003.08 1003.56 1004.18 1004.90 1005.65 1006.40 1007.11 1007.73 1008.27 1008.71 1009.09 1009.41 1009.69 1009.96 1010.23 1010.49 1010.73 1010.94 1011.08 1011.14 1011.10 1010.97 1010.75 1010.47
1009.22 1008.46 1007.77 1007.17 1006.65 1006.22 1005.85 1005.52 1005.22 1004.91 1004.58 1004.23 1003.87 1003.52 1003.21 1002.97 1002.84 1002.86 1003.04 1003.40 1003.91 1004.55 1005.28 1006.06 1006.83 1007.55 1008.20 1008.77 1009.24 1009.64 1009.98 1010.27 1010.54 1010.79 1011.02 1011.21 1011.36 1011.43 1011.42 1011.30 1011.09 1010.78 1010.41
1008.26 1007.46 1006.77 1006.19 1005.72 1005.35 1005.08 1004.86 1004.67 1004.50 1004.31 1004.09 1003.86 1003.63 1003.43 1003.29 1003.25 1003.34 1003.58 1003.96 1004.50 1005.15 1005.87 1006.64 1007.40 1008.12 1008.77 1009.33 1009.81 1010.20 1010.54 1010.82 1011.07 1011.29 1011.47 1011.61 1011.70 1011.71 1011.63 1011.45 1011.17 1010.80 1010.37
1007.22 1006.41 1005.71 1005.16 1004.74 1004.45 1004.27 1004.17 1004.12 1004.08 1004.04 1003.97 1003.89 1003.81 1003.74 1003.72 1003.79 1003.95 1004.25 1004.67 1005.22 1005.86 1006.57 1007.31 1008.04 1008.73 1009.35 1009.88 1010.33 1010.71 1011.01 1011.27 1011.47 1011.65 1011.78 1011.87 1011.89 1011.84 1011.70 1011.47 1011.14 1010.74 1010.26
1006.19 1005.36 1004.67 1004.14 1003.77 1003.56 1003.47 1003.47 1003.54 1003.64 1003.74 1003.84 1003.91 1003.98 1004.06 1004.17 1004.35 1004.60 1004.96 1005.42 1005.97 1006.60 1007.28 1007.98 1008.66 1009.30 1009.87 1010.36 1010.76 1011.09 1011.36 1011.56 1011.72 1011.84 1011.92 1011.94 1011.91 1011.80 1011.61 1011.34 1010.98 1010.54 1010.04
1005.25 1004.42 1003.74 1003.23 1002.90 1002.74 1002.73 1002.82 1002.99 1003.22 1003.45 1003.69 1003.91 1004.13 1004.35 1004.59 1004.88 1005.22 1005.64 1006.13 1006.69 1007.31 1007.95 1008.59 1009.22 1009.79 1010.30 1010.73 1011.08 1011.36 1011.57 1011.73 1011.83 1011.89 1011.90 1011.87 1011.77 1011.61 1011.37 1011.05 1010.67 1010.21 1009.70
1004.55 1003.71 1003.04 1002.56 1002.26 1002.13 1002.17 1002.33 1002.58 1002.89 1003.24 1003.59 1003.95 1004.29 1004.64 1005.00 1005.39 1005.81 1006.27 1006.79 1007.35 1007.94 1008.54 1009.13 1009.69 1010.20 1010.65 1011.02 1011.31 1011.54 1011.70 1011.80 1011.85 1011.85 1011.80 1011.70 1011.54 1011.32 1011.03 1010.67 1010.25 1009.77 1009.24
1004.17 1003.36 1002.71 1002.23 1001.95 1001.85 1001.92 1002.11 1002.41 1002.79 1003.21 1003.65 1004.10 1004.55 1004.99 1005.44 1005.90 1006.38 1006.89 1007.42 1007.96 1008.52 1009.07 1009.61 1010.10 1010.55 1010.93 1011.24 1011.49 1011.67 1011.78 1011.83 1011.83 1011.78 1011.67 1011.51 1011.29 1011.01 1010.67 1010.26 1009.79 1009.27 1008.71
1004.19 1003.41 1002.80 1002.35 1002.09 1002.00 1002.07 1002.28 1002.60 1003.00 1003.46 1003.95 1004.46 1004.97 1005.48 1005.98 1006.49 1007.00 1007.52 1008.04 1008.56 1009.07 1009.57 1010.04 1010.47 1010.86 1011.18 1011.45 1011.65 1011.79 1011.86 1011.88 1011.84 1011.75 1011.59 1011.37 1011.09 1010.75 1010.34 1009.88 1009.35 1008.79 1008.18
1004.59 1003.89 1003.32 1002.91 1002.67 1002.59 1002.66 1002.87 1003.18 1003.58 1004.04 1004.55 1005.07 1005.60 1006.14 1006.66 1007.18 1007.69 1008.19 1008.68 1009.16 1009.62 1010.05 1010.45 1010.82 1011.14 1011.42 1011.64 1011.81 1011.92 1011.97 1011.97 1011.90 1011.77 1011.58 1011.32 1010.99 1010.59 1010.12 1009.59 1009.01 1008.38 1007.72
1005.28 1004.67 1004.18 1003.82 1003.61 1003.54 1003.61 1003.79 1004.09 1004.47 1004.91 1005.39 1005.90 1006.43 1006.95 1007.46 1007.95 1008.43 1008.89 1009.33 1009.75 1010.13 1010.50 1010.83 1011.13 1011.39 1011.62 1011.81 1011.95 1012.04 1012.09 1012.07 1011.99 1011.85 1011.63 1011.34 1010.97 1010.52 1010.00 1009.42 1008.78 1008.10 1007.39
1006.09 1005.59 1005.19 1004.90 1004.73 1004.67 1004.74 1004.91 1005.17 1005.51 1005.91 1006.36 1006.83 1007.32 1007.80 1008.27 1008.73 1009.15 1009.55 1009.92 1010.26 1010.57 1010.86 1011.12 1011.35 1011.57 1011.75 1011.91 1012.04 1012.12 1012.17 1012.15 1012.08 1011.94 1011.71 1011.41 1011.01 1010.54 1009.99 1009.37 1008.70 1007.98 1007.24
1006.86 1006.47 1006.17 1005.94 1005.81 1005.78 1005.83 1005.98 1006.21 1006.51 1006.87 1007.27 1007.69 1008.13 1008.56 1008.98 1009.37 1009.73 1010.07 1010.36 1010.63 1010.86 1011.07 1011.27 1011.44 1011.61 1011.76 1011.90 1012.02 1012.11 1012.16 1012.16 1012.11 1011.98 1011.76 1011.47 1011.08 1010.60 1010.05 1009.42 1008.74 1008.01 1007.26
Thickness
5776 5773 5770 5768 5765 5762 5760 5758 5756 5754 5751 5748 5746 5744 5741 5739 5737 5734 5731 5729 5726 5724 5722 5720 5718 5716 5713 5711 5708 5705 5702 5699 5692 5688 5685 5683 5681 5680 5678 5676 5675 5674 5672
5778 5774 5771 5768 5766 5763 5760 5758 5756 5754 5751 5748 5746 5743 5740 5737 5735 5732 5729 5726 5723 5721 5719 5718 5716 5714 5711 5708 5705 5702 5699 5696 5691 5684 5681 5679 5676 5674 5672 5670 5669 5668 5666
5779 5775 5771 5768 5766 5763 5760 5758 5756 5753 5750 5747 5744 5741 5738 5735 5733 5730 5727 5724 5721 5718 5716 5715 5713 5710 5707 5704 5702 5699 5696 5693 5689 5683 5678 5674 5671 5668 5666 5664 5662 5660 5659
5778 5775 5771 5768 5765 5763 5760 5757 5754 5751 5749 5745 5742 5739 5736 5733 5730 5728 5725 5721 5718 5716 5714 5712 5709 5707 5704 5701 5698 5695 5691 5687 5683 5679 5674 5670 5666 5663 5660 5658 5656 5654 5652
5776 5773 5770 5768 5764 5762 5758 5755 5752 5749 5746 5743 5740 5736 5733 5730 5728 5725 5722 5719 5715 5712 5710 5708 5706 5704 5701 5698 5695 5691 5688 5683 5678 5674 5669 5665 5661 5657 5655 5653 5650 5647 5645
5775 5772 5770 5765 5762 5759 5756 5753 5749 5746 5743 5740 5737 5734 5731 5728 5725 5722 5719 5715 5712 5709 5706 5704 5702 5700 5697 5695 5691 5688 5685 5680 5675 5670 5665 5661 5657 5654 5650 5647 5643 5640 5638
5773 5771 5768 5764 5760 5757 5755 5751 5747 5743 5740 5737 5734 5731 5728 5726 5722 5719 5715 5712 5709 5706 5703 5700 5698 5696 5693 5690 5687 5683 5679 5676 5673 5668 5663 5659 5655 5651 5646 5641 5637 5635 5633
5768 5768 5767 5763 5760 5757 5752 5748 5745 5741 5738 5734 5730 5728 5725 5723 5719 5715 5711 5708 5706 5703 5700 5697 5694 5691 5688 5685 5681 5677 5673 5670 5666 5663 5660 5656 5652 5647 5643 5638 5633 5629 5625
5764 5763 5762 5760 5757 5753 5750 5746 5742 5739 5735 5731 5728 5724 5721 5719 5716 5712 5708 5704 5701 5697 5694 5692 5689 5685 5682 5679 5675 5671 5667 5664 5661 5657 5654 5650 5646 5641 5636 5631 5626 5623 5620
5759 5759 5757 5755 5752 5749 5746 5743 5740 5736 5732 5728 5724 5721 5718 5716 5713 5708 5703 5700 5696 5692 5688 5685 5683 5679 5676 5672 5668 5664 5660 5656 5653 5651 5647 5643 5639 5635 5631 5627 5623 5618 5615
5754 5753 5751 5749 5746 5744 5740 5738 5734 5730 5725 5722 5719 5716 5714 5712 5708 5703 5698 5694 5691 5687 5683 5680 5676 5672 5668 5664 5661 5657 5654 5650 5647 5643 5640 5637 5633 5628 5624 5621 5617 5614 5611
5745 5745 5744 5742 5740 5737 5733 5729 5726 5723 5719 5715 5711 5709 5707 5705 5701 5697 5692 5689 5685 5681 5677 5673 5670 5665 5662 5658 5655 5651 5647 5643 5639 5636 5633 5630 5626 5622 5619 5615 5612 5609 5606
5738 5736 5735 5734 5731 5728 5725 5721 5718 5715 5711 5708 5705 5702 5700 5697 5694 5690 5686 5682 5678 5673 5670 5666 5662 5658 5655 5652 5649 5644 5639 5636 5633 5629 5626 5623 5620 5616 5612 5609 5605 5602 5599
5728 5727 5727 5724 5722 5719 5717 5715 5712 5708 5705 5703 5700 5697 5693 5690 5686 5682 5678 5674 5670 5665 5661 5657 5653 5650 5647 5644 5640 5636 5632 5629 5626 5623 5619 5616 5612 5608 5605 5602 5599 5595 5592
5718 5718 5717 5716 5715 5712 5709 5708 5706 5704 5701 5698 5695 5692 5688 5684 5681 5676 5672 5667 5663 5658 5653 5649 5645 5641 5638 5635 5631 5628 5624 5621 5618 5615 5611 5608 5605 5602 5598 5595 5592 5588 5586
5710 5710 5709 5709 5707 5704 5702 5699 5697 5696 5693 5690 5688 5685 5682 5678 5674 5668 5663 5659 5654 5649 5645 5641 5637 5634 5631 5627 5624 5620 5617 5614 5611 5608 5604 5601 5598 5595 5591 5588 5584 5582 5580
5703 5703 5702 5701 5699 5697 5695 5692 5687 5684 5682 5680 5677 5675 5672 5668 5664 5659 5654 5649 5644 5640 5637 5634 5630 5627 5624 5620 5617 5614 5611 5608 5604 5600 5597 5594 5591 5588 5584 5581 5578 5576 5574
5695 5695 5695 5694 5692 5690 5688 5684 5681 5677 5674 5670 5666 5663 5661 5658 5654 5650 5645 5640 5635 5632 5630 5627 5624 5621 5617 5614 5610 5607 5604 5600 5597 5594 5591 5587 5584 5581 5578 5576 5573 5570 5568
5687 5687 5686 5685 5684 5682 5679 5676 5673 5670 5666 5662 5658 5654 5650 5647 5643 5640 5636 5634 5631 5627 5624 5621 5618 5615 5611 5608 5604 5601 5597 5594 5590 5587 5584 5581 5578 5574 5572 5570 5568 5564 5561
5678 5678 5677 5675 5674 5672 5670 5667 5664 5660 5657 5654 5651 5647 5642 5638 5635 5631 5628 5626 5624 5621 5618 5615 5612 5608 5605 5602 5598 5594 5591 5587 5584 5581 5578 5575 5571 5569 5567 5564 5562 5560 5557
5670 5669 5667 5666 5664 5663 5661 5658 5655 5652 5648 5645 5643 5640 5635 5633 5630 5626 5623 5619 5617 5614 5611 5608 5605 5601 5598 5595 5592 5589 5585 5582 5578 5575 5572 5569 5566 5563 5561 5558 5556 5554 5552
5661 5659 5657 5656 5655 5653 5651 5649 5646 5643 5640 5637 5634 5631 5626 5625 5622 5620 5616 5613 5610 5607 5605 5602 5599 5596 5593 5590 5586 5583 5580 5576 5573 5570 5566 5563 5560 5557 5555 5552 5550 5547 5545
5651 5649 5647 5646 5645 5643 5641 5639 5636 5633 5632 5629 5627 5623 5620 5617 5615 5612 5610 5607 5603 5600 5597 5594 5592 5589 5587 5584 5581 5577 5574 5572 5568 5564 5561 5557 5554 5552 5549 5546 5544 5541 5540
5641 5640 5639 5637 5636 5634 5633 5630 5627 5625 5623 5620 5618 5615 5612 5609 5607 5605 5602 5600 5596 5593 5590 5588 5585 5583 5581 5578 5574 5571 5568 5565 5561 5557 5554 5551 5548 5545 5542 5540 5538 5536 5534
5632 5632 5630 5629 5628 5626 5623 5621 5618 5616 5614 5612 5609 5607 5604 5602 5599 5597 5594 5592 5588 5586 5584 5581 5579 5577 5575 5572 5568 5564 5561 5557 5554 5550 5547 5544 5542 5539 5536 5534 5531 5529 5527
5623 5623 5622 5621 5619 5617 5614 5612 5610 5608 5606 5603 5601 5599 5597 5594 5592 5589 5587 5584 5581 5579 5577 5575 5573 5570 5568 5565 5562 5558 5554 5551 5547 5544 5541 5538 5535 5532 5529 5527 5525 5522 5521